Cedar Rapids, IA

3:09 PM CDT on June 26, 2017 (GMT -0500)
The Eastern Iowa Airport

Weather History for KCID - March, 2014

Change the Weather History Date:

Wednesday, March 12, 2014

  Actual Average Record
Temperature  
Mean Temperature 29 °F 35 °F  
Max Temperature 35 °F 44 °F 78 °F (1990)
Min Temperature 22 °F 25 °F -7 °F (1948)
Degree Days  
Heating Degree Days 36 30  
Month to date heating degree days 508 391  
Since 1 July heating degree days 6547 5674  
Cooling Degree Days 0 0  
Month to date cooling degree days 0 0  
Year to date cooling degree days 0 0  
Moisture  
Dew Point 19 °F    
Average Humidity 70    
Maximum Humidity 81    
Minimum Humidity 58    
Precipitation  
Precipitation 0.00 in 0.06 in 0.97 in (1991)
Month to date precipitation 0.17 0.73  
Year to date precipitation 1.92 2.87  
Sea Level Pressure  
Sea Level Pressure 30.03 in    
Wind  
Wind Speed 15 mph (NNW)    
Max Wind Speed 26 mph    
Max Gust Speed 34 mph    
Visibility 10 miles    
Events      
T = Trace of Precipitation, MM = Missing Value Source: NWS Daily Summary

Daily Weather History Graph

Daily Weather History Graph

Search for Another Location

Airport or City:

Trip Planner

Search our weather history database for the weather conditions in past years. The results will help you decide how hot, cold, wet, or windy it might be!

Date:

Astronomy

Mar. 12, 2014 Rise Set
Actual Time 7:23 AM CDT 7:10 PM CDT
Civil Twilight 6:55 AM CDT 7:37 PM CDT
Nautical Twilight 6:23 AM CDT 8:10 PM CDT
Astronomical Twilight 5:51 AM CDT 8:42 PM CDT
Moon 3:38 PM CDT (3/12) 4:58 AM CDT (3/12)
Length of Visible Light 12h 41m
Length of Day
11h 46m
Waxing Gibbous, 85% of the Moon is Illuminated
Mar 12
Waxing Gibbous
Mar 16
Full
Mar 23
Last Quarter
Mar 30
New
Apr 7
First Quarter

Hourly Weather History & Observations

Time (CDT) Temp. Windchill Dew Point Humidity Pressure Visibility Wind Dir Wind Speed Gust Speed Precip Events Conditions
12:52 AM 36.0 °F 25.6 °F 26.1 °F 67% 29.85 in 10.0 mi NNW 18.4 mph - N/A   Overcast
1:52 AM 35.1 °F 23.5 °F 26.1 °F 70% 29.85 in 10.0 mi NNW 21.9 mph 27.6 mph N/A   Clear
2:52 AM 33.1 °F 20.1 °F 23.0 °F 66% 29.87 in 10.0 mi NNW 25.3 mph 32.2 mph N/A   Clear
3:52 AM 32.0 °F 19.8 °F 21.0 °F 64% 29.87 in 10.0 mi NNW 20.7 mph - N/A   Scattered Clouds
4:52 AM 30.9 °F 17.5 °F 19.9 °F 64% 29.90 in 10.0 mi NNW 24.2 mph 31.1 mph N/A   Mostly Cloudy
5:52 AM 30.0 °F 17.2 °F 18.0 °F 61% 29.94 in 10.0 mi NNW 20.7 mph 29.9 mph N/A   Mostly Cloudy
6:52 AM 28.0 °F 15.7 °F 18.0 °F 66% 29.98 in 10.0 mi NNW 17.3 mph - N/A   Clear
7:52 AM 27.0 °F 14.3 °F 18.0 °F 69% 30.00 in 10.0 mi NNW 17.3 mph 27.6 mph N/A   Clear
8:52 AM 28.0 °F 14.9 °F 19.0 °F 69% 30.01 in 10.0 mi NNW 19.6 mph 27.6 mph N/A   Clear
9:52 AM 28.0 °F 13.9 °F 19.0 °F 69% 30.04 in 10.0 mi NW 23.0 mph 31.1 mph N/A   Clear
10:52 AM 28.9 °F 15.4 °F 18.0 °F 64% 30.06 in 10.0 mi NNW 21.9 mph 26.5 mph N/A   Scattered Clouds
11:18 AM 30.0 °F 17.2 °F 19.0 °F 64% 30.03 in 10.0 mi NNW 20.7 mph - N/A   Partly Cloudy
11:52 AM 30.9 °F 18.1 °F 19.0 °F 61% 30.06 in 10.0 mi NNW 21.9 mph - N/A   Scattered Clouds
12:52 PM 30.9 °F 17.8 °F 19.0 °F 61% 30.07 in 10.0 mi NW 23.0 mph 26.5 mph N/A   Partly Cloudy
1:34 PM 30.9 °F 19.4 °F 19.0 °F 61% 30.05 in 10.0 mi NNW 17.3 mph 25.3 mph N/A   Mostly Cloudy
1:52 PM 30.9 °F 18.7 °F 19.9 °F 64% 30.08 in 10.0 mi NNW 19.6 mph - N/A   Mostly Cloudy
2:39 PM 32.0 °F 21.2 °F 19.9 °F 61% 30.05 in 10.0 mi NNW 16.1 mph 26.5 mph N/A   Mostly Cloudy
2:52 PM 30.9 °F 19.1 °F 19.0 °F 61% 30.07 in 10.0 mi NW 18.4 mph 25.3 mph N/A   Mostly Cloudy
2:54 PM 30.9 °F 18.7 °F 19.0 °F 61% 30.05 in 10.0 mi NW 19.6 mph 25.3 mph N/A   Mostly Cloudy
3:12 PM 32.0 °F 20.8 °F 19.9 °F 61% 30.05 in 10.0 mi NW 17.3 mph - N/A   Mostly Cloudy
3:52 PM 30.9 °F 19.4 °F 18.0 °F 59% 30.09 in 10.0 mi NW 17.3 mph - N/A   Mostly Cloudy
4:52 PM 30.9 °F 20.7 °F 18.0 °F 59% 30.10 in 10.0 mi NW 13.8 mph - N/A   Scattered Clouds
5:52 PM 30.0 °F 20.0 °F 19.0 °F 64% 30.11 in 10.0 mi NNW 12.7 mph - N/A   Partly Cloudy
6:52 PM 28.9 °F 18.6 °F 17.1 °F 61% 30.12 in 10.0 mi NNW 12.7 mph - N/A   Clear
7:52 PM 27.0 °F 18.7 °F 18.0 °F 69% 30.13 in 10.0 mi NNW 8.1 mph - N/A   Clear
8:52 PM 25.0 °F 19.3 °F 18.0 °F 75% 30.14 in 10.0 mi NNW 4.6 mph - N/A   Clear
9:52 PM 25.0 °F - 19.0 °F 78% 30.14 in 10.0 mi Calm Calm - N/A   Clear
10:52 PM 25.0 °F 20.7 °F 17.1 °F 72% 30.14 in 10.0 mi NW 3.5 mph - N/A   Clear
11:52 PM 23.0 °F 18.4 °F 18.0 °F 81% 30.13 in 10.0 mi NW 3.5 mph - N/A   Clear